Regional Weather Roundup
Issued by NWS Boston, MA

Home | Current Version | Previous Version | Text Only | Print | Product List | Glossary On
Versions: 1 2 3 4 5 6 7 8 9 10 11 12 13 14 15 16 17 18 19 20 21 22 23 24 25 26 27 28 29 30 31 32 33 34 35
000
ASUS41 KBOX 230810
RWRBOX

REGIONAL WEATHER ROUNDUP
NATIONAL WEATHER SERVICE TAUNTON MA
400 AM EDT THU OCT 23 2014

NOTE:  "FAIR" INDICATES FEW OR NO CLOUDS BELOW 12,000 FEET WITH NO
SIGNIFICANT WEATHER AND/OR OBSTRUCTIONS TO VISIBILITY.  THE FOLLOWING
OBSERVATION LOCATIONS DO NOT REPORT PRESENT WEATHER...PROVINCETOWN...
SMITHFIELD...BLOCK ISLAND...KEENE...AND OXFORD.

MAZALL-230900-
EASTERN MASSACHUSETTS

CITY           SKY/WX    TMP DP  RH WIND       PRES   REMARKS
BOSTON         HVY RAIN  49  49 100 N24G32    29.71F FOG
BEVERLY        RAIN      50  48  93 N20G39    29.71F FOG
LAWRENCE       RAIN      48  46  93 NE17G30   29.77F FOG
BEDFORD        RAIN      47  47 100 N13G24    29.73F FOG
BLUE HILL        N/A     48  48 100 N20G31    29.68F
NORWOOD        HVY RAIN  50  48  93 N13G22    29.70F FOG
MARSHFIELD     NOT AVBL
PLYMOUTH       CLOUDY    55  54  96 N16G28    29.61F
TAUNTON        LGT RAIN  53  50  89 N18G29    29.62F
NEW BEDFORD    CLOUDY    55  53  93 N16G25    29.56F
$$

MAZALL-230900-
CAPE COD AND THE ISLANDS

CITY           SKY/WX    TMP DP  RH WIND       PRES   REMARKS
FALMOUTH       CLOUDY    59  59 100 NE21G28   29.54F
HYANNIS        CLOUDY    60  58  92 E9        29.54F
CHATHAM        CLOUDY    58  58 100 E17G24    29.58F
PROVINCETOWN   CLOUDY    57  55  94 NE23G31   29.62F
NANTUCKET      CLOUDY    59  57  93 NE10      29.52S
MARTHAS VNYRD  CLOUDY    59  58  96 N15       29.56F
$$

MAZALL-230900-
CENTRAL AND WESTERN MASSACHUSETTS

CITY           SKY/WX    TMP DP  RH WIND       PRES   REMARKS
WORCESTER      LGT RAIN  45  44  97 N15G26    29.73R
FITCHBURG      HVY RAIN  48  45  87 N12       29.78F FOG
ORANGE         LGT RAIN  48  45  89 N8        29.79S
SPRINGFIELD    DRIZZLE   49  46  90 NE14      29.75F
WESTFIELD      LGT RAIN  50  46  86 N16G25    29.75R
NORTH ADAMS    RAIN      46  45  96 W8        29.82F FOG
PITTSFIELD     HVY RAIN  47  46  97 VRB5      29.77F FOG
$$

RIZALL-230900-
RHODE ISLAND

CITY           SKY/WX    TMP DP  RH WIND       PRES   REMARKS
PROVIDENCE     CLOUDY    51  48  89 N24G35    29.64F
NEWPORT        CLOUDY    55  50  83 N22G40    29.60F
BLOCK ISLAND   CLOUDY    54  48  82 N18G33    29.59S
SMITHFIELD     CLOUDY    48  39  71 N21G28    29.65F
WESTERLY       LGT RAIN  52  48  86 N20G33    29.62F
$$

CTZALL-230900-
CONNECTICUT

CITY           SKY/WX    TMP DP  RH WIND       PRES   REMARKS
BRADLEY INTL   CLOUDY    50  45  83 N21G29    29.73F
HARTFORD       CLOUDY    50  45  83 N14G26    29.72F
BRIDGEPORT     CLOUDY    51  47  86 N25G33    29.65F
DANBURY        LGT RAIN  51  44  77 N13       29.72F
GROTON         CLOUDY    50  47  89 N26G33    29.61F
NEW HAVEN      CLOUDY    52  46  80 N24G33    29.64F
CHESTER        NOT AVBL
MERIDEN        CLOUDY    50  45  83 N17G28    29.70F
WILLIMANTIC    CLOUDY    51  44  77 NE18G25   29.69F
OXFORD         CLOUDY    48  41  76 NE18G33   29.69F
$$

MEZ002-015-021-024-NHZ003-005-008-011-012-014-VTZ005-008-230900-
NORTHERN NEW ENGLAND

CITY           SKY/WX    TMP DP  RH WIND       PRES   REMARKS
PORTLAND ME    CLOUDY    49  46  90 N18G29    29.86F FOG
BANGOR ME      CLOUDY    47  45  93 NE17G26   30.00F
CONCORD NH     LGT RAIN  47  46  97 N10G22    29.82F
MANCHESTER NH  RAIN      49  44  83 N16G25    29.78F
NASHUA NH      CLOUDY    48  46  93 N10G20    29.79S FOG
PORTSMOUTH NH  LGT RAIN  48  46  92 N21G33    29.76F FOG
JAFFREY NH     HVY RAIN  45  44  97 VRB5      29.80F FOG
KEENE NH       CLOUDY    48  39  71 N12       29.82F
BURLINGTON VT  CLOUDY    45  36  70 N15G25    30.02S
MT. WASHINGTON FRZ RAIN  32  32 100 E66         N/A  VSB 1/16WCI  12
$$

NYZ052-076-230900-
EASTERN NEW YORK

CITY           SKY/WX    TMP DP  RH WIND       PRES   REMARKS
ALBANY         RAIN      48  44  86 N8        29.90S FOG
NEW YORK CITY  RAIN      53  47  79 N15       29.70S
$$

ANZALL-230900-
MARINE OBSERVATIONS

STATION/POSITION TIME  TEMP    WIND        PRES    VSBY  WAVE
                       AIR SEA DIR/SP/G                  HT/PER
                 (UTC) (F)     (DEG/KT/KT) (MB)    (MI)  (FT/S)
BOSTON BUOY      NOT AVBL
BUZZARDS BAY     NOT AVBL
NANTUCKET SOUND  NOT AVBL
MASS BAY-STELLWA NOT AVBL
ISLE OF SHOALS   NOT AVBL
S OF BLOCK IS    NOT AVBL
$$

......................KEY.........................
  SKY/WX - SKY CONDITION/PRESENT WEATHER
  TMP    - TEMPERATURE IN FAHRENHEIT
  DWPT   - DEWPOINT IN FAHRENHEIT
  RH     - RELATIVE HUMIDITY IN PERCENT
  WIND   - DIRECTION AND SPEED IN MPH
  PRES   - MEAN SEA LEVEL PRESSURE IN INCHES OF HG
  WCI    - WIND CHILL INDEX
  VSB    - VISIBILITY IN MILES
  HX     - HEAT INDEX
  TC     - TEMPERATURE IN CELSIUS
  VRB    - VARIABLE WIND DIRECTION
  N/A    - NOT AVAILABLE



USA.gov is the U.S. government's official web portal to all federal, state and local government web resources and services.